Location: Newark
(49.8969°N, 3.3422°E)
Time: 07:20:34
(UTC+00:00)

deb Explorer IX - Pass Details

Date: 26 January 2020
Orbit: 549 x 1099 km, 38.8° (Epoch: 20 February)

Event Time Altitude Azimuth Distance (km) Brightness Sun altitude
Rises 02:28:36 0° 266° (W) 3,906 - -47.0°
Reaches altitude 10° 02:32:31 10° 247° (WSW) 2,920 - -46.5°
Maximum altitude 02:36:40 16° 212° (SSW) 2,411 - -45.9°
Drops below altitude 10° 02:40:40 10° 175° (S) 2,775 - -45.4°
Sets 02:44:16 0° 156° (SSE) 3,625 - -44.8°
